Location: Gombori
(14.9797°N, 2.9419°W)
Time: 20:34:20
(UTC+00:00)

METEOR 2-17 DEB - Pass Details

Date: 02 June 2022
Orbit: 896 x 935 km, 82.5° (Epoch: 02 July)

Event Time Altitude Azimuth Distance (km) Brightness Sun altitude
Rises 20:29:01 0° 16° (NNE) 3,504 ? -24.3°
Reaches altitude 10° 20:31:56 10° 29° (NNE) 2,562 ? -24.9°
Enters shadow 20:34:24 20° 51° (NE) 1,947 ? -25.4°
